W1LP-13 Weather Reports


time (UTC)temp
C
wind
direction
speed
KPH
gust
KPH
rain 1hr
cm
rain 24hr
cm
rain mn
cm
humidity
%
barometer
mb
20260902021538 14 80 0.0 6.4 0.00 0.15 0.15 95 1015.7
20260902020042 14 73 0.0 1.6 0.00 0.15 0.15 95 1015.8
20260902014539 14 73 0.0 0.0 0.00 0.15 0.15 95 1015.9
20260902013036 13 73 0.0 1.6 0.00 0.15 0.15 94 1015.8
20260902011535 14 73 0.0 1.6 0.00 0.15 0.15 94 1015.5
20260902010040 14 73 0.0 1.6 0.00 0.15 0.15 94 1015.8
20260902004532 14 73 0.0 0.0 0.00 0.15 0.15 94 1016.0
20260902003031 15 73 0.0 0.0 0.00 0.15 0.15 94 1016.0
20260902001529 15 73 0.0 0.0 0.00 0.15 0.15 94 1015.8
20260902000028 15 73 0.0 1.6 0.00 0.15 0.15 94 1015.5
20260901234526 15 73 0.0 4.8 0.03 0.15 0.15 94 1015.4
20260901233027 15 84 0.0 0.0 0.03 0.15 0.15 95 1015.4
20260901231528 15 84 0.0 0.0 0.03 0.15 0.15 94 1015.5
20260901230023 16 84 0.0 0.0 0.03 0.15 0.15 94 1015.5
20260901224521 16 84 0.0 3.2 0.00 0.13 0.13 94 1015.4
20260901223021 16 84 0.0 0.0 0.00 0.13 0.13 94 1015.5
20260901221519 16 84 0.0 0.0 0.00 0.13 0.13 93 1015.8
20260901220018 16 84 0.0 1.6 0.00 0.13 0.13 94 1015.6
20260901214517 17 84 0.0 1.6 0.00 0.13 0.13 94 1015.6
20260901213024 17 85 0.0 3.2 0.03 0.13 0.13 95 1015.4
20260901211517 17 85 0.0 0.0 0.03 0.13 0.13 94 1015.3
20260901210015 17 158 0.0 0.0 0.03 0.13 0.13 94 1015.1
20260901204517 17 159 0.0 0.0 0.03 0.13 0.13 94 1015.1
20260901203015 17 161 0.0 0.0 0.00 0.10 0.10 94 1015.0
20260901201514 17 162 0.0 1.6 0.00 0.10 0.10 94 1015.0
20260901200017 17 162 0.0 4.8 0.03 0.10 0.10 93 1014.9
20260901194512 17 169 0.0 1.6 0.10 0.10 0.10 94 1015.0
20260901193011 17 169 0.0 1.6 0.10 0.10 0.10 92 1014.8
20260901191515 17 169 0.0 1.6 0.10 0.10 0.10 92 1014.7
20260901190015 17 173 0.0 0.0 0.08 0.08 0.08 91 1014.6
20260901184510 17 173 0.0 1.6 0.00 0.00 0.00 87 1014.7
20260901183020 18 168 0.0 4.8 0.00 0.00 0.00 86 1014.9
20260901181507 18 141 0.0 3.2 0.00 0.00 0.00 84 1014.8
20260901180014 18 236 0.0 1.6 0.00 0.00 0.00 83 1014.8
20260901174506 20 236 0.0 1.6 0.00 0.00 0.00 84 1014.9
20260901173005 20 256 0.0 4.8 0.00 0.00 0.00 81 1014.9
20260901171506 20 84 0.0 6.4 0.00 0.00 0.00 80 1014.5
20260901170004 20 122 0.0 4.8 0.00 0.00 0.00 78 1014.6
20260901164502 20 91 1.6 6.4 0.00 0.00 0.00 75 1014.7
20260901163002 20 123 0.0 4.8 0.00 0.00 0.00 77 1014.6
20260901161501 21 50 0.0 1.6 0.00 0.00 0.00 79 1014.8
20260901160001 21 36 0.0 6.4 0.00 0.00 0.00 74 1014.7
20260901154604 21 165 1.6 9.7 0.00 0.00 0.00 75 1014.8
20260901153057 21 108 0.0 4.8 0.00 0.00 0.00 80 1014.9
20260901151600 21 100 1.6 9.7 0.00 0.00 0.00 82 1015.0
20260901150055 20 157 0.0 3.2 0.00 0.00 0.00 86 1015.2
20260901144550 20 142 0.0 4.8 0.00 0.00 0.00 87 1015.3
20260901143049 20 213 0.0 0.0 0.00 0.00 0.00 91 1015.2
20260901141549 20 213 0.0 0.0 0.00 0.00 0.00 90 1015.2
20260901140047 20 215 0.0 0.0 0.00 0.00 0.00 90 1015.0
20260901134547 20 235 0.0 0.0 0.00 0.00 0.00 92 1015.2
20260901133047 20 237 0.0 0.0 0.00 0.00 0.00 91 1015.0
20260901131544 20 237 0.0 0.0 0.00 0.00 0.00 91 1015.1
20260901130041 20 237 0.0 0.0 0.00 0.00 0.00 91 1015.1
20260901124540 20 237 0.0 0.0 0.00 0.00 0.00 91 1015.0
20260901123041 19 238 0.0 0.0 0.00 0.00 0.00 92 1014.9
20260901121540 19 238 0.0 0.0 0.00 0.00 0.00 92 1015.0
20260901120036 18 238 0.0 0.0 0.00 0.00 0.00 93 1015.2
20260901114533 18 238 0.0 0.0 0.00 0.00 0.00 93 1015.1
20260901113033 18 238 0.0 0.0 0.00 0.00 0.00 93 1014.9
20260901111528 18 238 0.0 0.0 0.00 0.00 0.00 93 1014.7
20260901110027 18 238 0.0 0.0 0.00 0.00 0.00 93 1014.7
20260901104527 18 238 0.0 0.0 0.00 0.00 0.00 92 1014.6
20260901103025 17 238 0.0 0.0 0.00 0.00 0.00 92 1014.3
20260901101524 17 238 0.0 0.0 0.00 0.00 0.00 91 1014.5
20260901100023 18 238 0.0 0.0 0.00 0.00 0.00 91 1014.3
20260901094523 17 238 0.0 0.0 0.00 0.00 0.00 91 1014.2
20260901093021 17 238 0.0 0.0 0.00 0.00 0.00 91 1014.2
20260901091520 17 238 0.0 0.0 0.00 0.00 0.00 90 1014.3
20260901090018 17 238 0.0 0.0 0.00 0.00 0.00 89 1014.5
20260901084514 17 238 0.0 0.0 0.00 0.00 0.00 89 1014.8
20260901083014 17 238 0.0 0.0 0.00 0.00 0.00 88 1015.0
20260901081512 17 238 0.0 0.0 0.00 0.00 0.00 89 1014.9
20260901080012 17 238 0.0 0.0 0.00 0.00 0.00 89 1014.7
20260901074510 17 238 0.0 0.0 0.00 0.00 0.00 90 1014.9
20260901073009 17 238 0.0 0.0 0.00 0.00 0.00 90 1015.0
20260901071508 17 238 0.0 1.6 0.00 0.00 0.00 90 1015.2
20260901070010 17 240 0.0 1.6 0.00 0.00 0.00 90 1015.3
20260901064506 16 240 0.0 1.6 0.00 0.00 0.00 90 1015.4
20260901063014 16 240 0.0 3.2 0.00 0.00 0.00 91 1015.3
20260901061506 16 240 0.0 0.0 0.00 0.00 0.00 91 1015.3
20260901060010 16 240 0.0 0.0 0.00 0.18 0.00 91 1015.4
20260901054503 16 240 0.0 0.0 0.00 0.18 0.00 91 1015.6
20260901053004 16 240 0.0 1.6 0.00 0.18 0.00 91 1015.5
20260901051607 16 240 0.0 0.0 0.00 0.18 0.00 90 1015.5
20260901050059 17 240 0.0 0.0 0.00 0.18 0.00 90 1015.5
20260901044604 17 250 0.0 0.0 0.00 0.58 0.00 89 1015.7
20260901043055 17 250 0.0 0.0 0.00 0.58 0.00 89 1015.8
20260901041616 17 250 0.0 0.0 0.00 0.58 0.00 89 1015.8
20260901040127 17 250 0.0 0.0 0.00 0.58 0.00 90 1015.8
20260901034551 17 250 0.0 0.0 0.00 0.66 0.58 90 1015.8
20260901033050 17 250 0.0 0.0 0.00 0.66 0.58 90 1015.7
20260901031550 17 250 0.0 1.6 0.00 0.66 0.58 90 1015.9
20260901030049 17 250 0.0 1.6 0.00 0.66 0.58 90 1015.8
20260901024553 17 250 0.0 1.6 0.00 0.69 0.58 89 1016.0
20260901023050 17 250 0.0 1.6 0.00 0.69 0.58 89 1015.9